Погода в Шымкенте

Погода в Шымкенте : погода сейчас, прогноз погоды и архив. Всё, что Вы хотите узнать о погоде в Шымкенте!

Поиск расширенной информации на нашем сайте:

Другие новости

Новости СМИ2

Главная страница сайта

Новости сайта

03.07.2017

Напоминаем, что на нашем специализированном сайте Метеоцентр.Азия вы можете получить высокодетализированные автоматические прогнозы погоды по пунктам России, СНГ и мира в авиационном формате (включающие направление и скорость ветра, видимость, явления погоды, количество и форму облачности, нижнюю и верхнюю границу облачности).

Рекомендуем: Заливка фундамента вручную в Калуге.

Погода в Шымкенте - сегодня

Время (UTC), дата Ветер
(°,м/с) 
Видим.   Явления Облачность Т
(°С)
Тd
(°С)
f(%) Тe
(°С)
Pmin
(гПа)
dP
(гПа)
Po
(мм)
O2
(г/м3)
Тmin Tmax R s Состояние
почвы
12 08.12.17 090 (В) 20000 м    10/10 600 м 
[Sc]
+3.9 -1.7 67 +3  1008.7  1.5  703  279           
15 08.12.17 200 (Ю) н/о    10/10 600 м кучево-дожд. 
[Cb cap]
+3.2 -1.2 73 +3  1010.4  1.5  704  280    +10.4       
18 08.12.17 210 (ЮЗ) н/о    10/10 600 м кучево-дожд. 
[Cb cap]
+5.2 -3.4 54 +5  1014.7  4.4  707  280    +10.4       
21 08.12.17 240 (ЮЗ) н/о    10/10 600 м кучево-дожд. 
[Cb cap]
+3.2 -1.2 73 +4  1017.8  2.4  709  282           
00 09.12.17 230 (ЮЗ) н/о  слаб. ливневой снег  10/10 600 м кучево-дожд. 
[Cb cap]
+1 -1.6 83 -1  1022.6  3.9  712  286           
03 09.12.17 270 (З) 2000 м  в посл. час ливневой снег  10/10 600 м кучево-дожд. 
[Cb cap]
+0.9 -1.1 86 -1  1024.5  1.8  713  286      11  равномерный
мокрый или
старый снег
100% 
06 09.12.17 250 (З) 20000 м  {ливн. осадки}  8/4 600 м средняя 
[Sc|Ac trans]
+3.3 -0.8 74 +2  1024.5  0.6  714  284  -0.2       
09 09.12.17 230 (ЮЗ) 20000 м    8/6 600 м средняя 
[Sc|Ac trans]
+5.9 +0.5 68 +6  1021.7  -2  712  281           
12 09.12.17 210 (ЮЗ) 4-15{23}  20000 м    10/10 600 м кучево-дожд. 
[Cb cap]
+7.4 -2.5 49 +6  1020  -1.2  711  279           
15 09.12.17 240 (ЮЗ) 4{15}  н/о  слаб. ливневой снег  10/10 600 м кучево-дожд. 
[Cb cap]
+0.2 -0.4 96 -2  1025.5  3.3  714  287    +8.1  0.0     
18 09.12.17 230 (ЮЗ) н/о  слаб. ливневой снег  10/10 600 м кучево-дожд. 
[Cb cap]
-3.6 -4.1 96 -7  1030.3  3.5  716  293    +8.1  0.0     
21 09.12.17 240 (ЮЗ) н/о  ливневой снег  10/10 300 м кучево-дожд. 
[Cb cap]
-3.8 -4.3 96 -6  1034  3.3  719  294           
00 10.12.17 220 (ЮЗ) н/о  в посл. час ливневой снег  9/9 600 м кучево-дожд. 
[Cb cap]
-4.4 -5.7 91 -4  1037.1  2.7  721  296           
03 10.12.17 100 (В) 2000 м  дымка  3/3 600 м 
[Sc]
-7.2 -8.1 93 -7  1037.4  -0.5  720  299      19  21  равномерный
сухой снег
100% 
06 10.12.17 090 (В) 20000 м    ясно 
-2.4 -4.6 85 -2  1035.2  -0.7  720  293  -8    19     
09 10.12.17 320 (СЗ) 20000 м    8/0 средняя 
[Ac trans]
-2.3 -5.5 79 -2  1034  -1.1  719  293           
12 10.12.17 120 (ЮВ) 20000 м    3/0 средняя 
[Ac trans]
-6.4 -8.3 86 -6  1034.1  -1.1  718  297           
15 10.12.17 110 (В) н/о    ясно 
-7.4 -10.8 77 -9  1033.6  -0.7  718  298    +0       
18 10.12.17 100 (В) н/о    ясно 
-10.6 -13.4 80 -10  1032.7  -1.7  716  301    +0       
21 10.12.17 100 (В) н/о    ясно 
-9.8 -11.5 87 -10  1031.1  -1.2  716  300           
00 11.12.17 090 (В) н/о    ясно 
-6 -9.1 79 -7  1029  -0.9  715  295           
03 11.12.17 120 (ЮВ) 20000 м    6/0 верхняя 
[Ci fib]
-8.9 -11.3 83 -9  1030.3  0.3  715  299        16  равномерный
сухой снег
100% 
06 11.12.17 090 (В) 20000 м    10/0 верхняя 
[Ci ing]
-0.8 -6.1 67 1028.1  0.2  715  290  -10.8         
09 11.12.17 040 (СВ) 20000 м    10/0 верхняя 
[Ci ing]
+1.7 -8.7 46 +2  1025.7  -1.8  714  287           
12 11.12.17 060 (СВ) 20000 м    8/0 средняя, верхняя 
[Ac trans|Ci ing]
-4.8 -8.4 76 -4  1027  -0.3  714  293           
Время (UTC), дата Ветер
(°,м/с) 
Видим.   Явления Облачность Т
(°С)
Тd
(°С)
f(%) Тe
(°С)
Pmin
(гПа)
dP
(гПа)
Po
(мм)
O2
(г/м3)
Тmin Tmax R s Состояние
почвы

Для получения пояснительной информации подведите курсор к названию столбца.

ПОГОДА в Шымкенте - архив

Всё, что Вы хотите узнать о погоде в Шымкенте - удобно и подробно!

Выберите нужную дату (начиная с 1 января 2015* года) и нажмите кнопку "Найти".
Будут отображены архивные сводки погоды по пункту Шымкент, начиная с указанной даты.


Отображать данные в формате CSV (для использования в таблицах Excel)


Внимание! Наш архив погоды предназначен исключительно для личного некоммерческого использования в познавательных целях. Если Вам необходимы официальные справки о состоянии погоды (для производственных, юридических, коммерческих и т.п. целей), обращайтесь в органы Росгидромета.

*Примечание: данная дата относится к архиву по метеостанциям СССР (Россия, СНГ, Балтия).
Архив по метеостанциям Зарубежной Европы и Азии (кроме Китая) хранится 10 дней, по другим регионам земного шара (Китай, Африка, Америка, Австралия, Океания) - 1 день.

Шымкент - район местоположения метеостанции


Название, широта, долгота, высота метеостанции:
Шымкент (город) 42.3°ш. 69.7°д. 604 м над ур. моря [Казахстан]

Дополнительная информация

В oтличие oт бoльшинства пoгoдных сайтoв мы публикуем пoдрoбную метеoинфoрмацию в детальнoм прoфессиoнальнoм фoрмате.

Характеристики температуры и влажнoсти вoздуха измеряются на высoте 2 м в тени вдали oт зданий и деревьев.
Скoрoсть ветра измеряется на высoте 10 м (на урoвне рoста челoвека скoрoсть ветра ниже в 1.5-2 раза). Если метеoстанция нахoдится в гoрoде или в лесу, тo скoрoсть ветра занижена на 2-4 м/с пo сравнению с oткрытым местoм. Скoрoсть ветра над акватoриями крупных рек и oзёр, а также на вершинах хoлмoв на 2-5 м/с выше, чем в oбычных услoвиях.
Атмoсфернoе давление в разных тoчках местнoсти мoжет значительнo oтличаться oт давления на метеoстанции, в зависимoсти oт услoвий рельефа (при пoдъёме на 10 м давление пoнижается примернo на 1 мм рт.ст.).